CW8490 Weather Reports


time (UTC)temp
C
wind
direction
speed
KPH
gust
KPH
rain 1hr
cm
rain 24hr
cm
rain mn
cm
humidity
%
barometer
mb
20260506070117 7 23 1.6 3.2 0.03 2.26 0.03 88 1014.4
20260506062116 7 23 3.2 4.8 0.00 2.74 0.00 84 1014.7
20260506061117 7 0 3.2 3.2 0.00 2.74 0.00 85 1014.7
20260506060116 7 0 4.8 4.8 0.00 2.77 0.00 85 1014.2
20260506051216 8 0 6.4 8.0 0.03 2.77 0.00 90 1013.9
20260506050257 8 0 3.2 4.8 0.03 2.77 0.00 95 1013.7
20260506044216 8 248 3.2 6.4 0.00 2.74 2.74 95 1013.3
20260506043215 8 293 1.6 3.2 0.00 2.74 2.74 95 1013.1
20260506042216 8 0.0 1.6 0.00 2.74 2.74 95 1012.8
20260506041215 8 0.0 0.0 0.00 2.74 2.74 95 1013.0
20260506040215 8 0.0 0.0 0.00 2.74 2.74 95 1013.0
20260506035216 7 0.0 0.0 0.00 2.74 2.74 95 1013.0
20260506034216 7 0.0 0.0 0.00 2.74 2.74 94 1012.7
20260506033215 7 203 3.2 3.2 0.00 2.74 2.74 94 1012.7
20260506032216 7 0.0 1.6 0.00 2.74 2.74 94 1012.6
20260506031216 7 0.0 0.0 0.00 2.74 2.74 94 1012.4
20260506030216 7 0.0 0.0 0.00 2.74 2.74 94 1012.3
20260506025216 7 0.0 0.0 0.00 2.74 2.74 94 1012.0
20260506024216 7 0.0 0.0 0.00 2.74 2.74 94 1011.7
20260506023216 7 0.0 0.0 0.00 2.74 2.74 93 1011.6
20260506022216 7 0.0 0.0 0.00 2.74 2.74 93 1011.5
20260506021216 7 0.0 0.0 0.00 2.74 2.74 93 1011.4
20260506020236 7 0.0 0.0 0.00 2.74 2.74 92 1011.1
20260506015216 8 0.0 0.0 0.00 2.74 2.74 92 1011.0
20260506014216 8 0.0 0.0 0.00 2.74 2.74 92 1011.0
20260506013216 8 0.0 1.6 0.00 2.74 2.74 92 1011.1
20260506012236 8 203 1.6 1.6 0.00 2.74 2.74 92 1010.9
20260506011236 8 0.0 1.6 0.00 2.74 2.74 92 1010.8
20260506010236 8 158 1.6 1.6 0.00 2.74 2.74 92 1010.7
20260506005216 8 0.0 1.6 0.00 2.74 2.74 91 1010.9
20260506004216 8 0.0 0.0 0.00 2.74 2.74 91 1011.0
20260506003216 8 203 1.6 1.6 0.00 2.74 2.74 91 1010.5
20260506002216 9 203 1.6 3.2 0.00 2.74 2.74 91 1010.3
20260506001216 9 180 1.6 1.6 0.00 2.74 2.74 90 1010.3
20260506000216 9 203 1.6 1.6 0.00 2.74 2.74 91 1010.0
20260505235216 9 203 1.6 3.2 0.00 2.74 2.74 90 1010.2
20260505234216 9 158 3.2 4.8 0.00 2.74 2.74 90 1010.2
20260505233216 9 225 1.6 3.2 0.00 2.74 2.74 90 1010.6
20260505232259 9 0.0 0.0 0.00 2.74 2.74 89 1010.5
20260505231716 10 225 3.2 3.2 0.00 2.74 2.74 88 1010.6
20260505230716 10 158 3.2 3.2 0.00 2.74 2.74 88 1010.6
20260505225736 10 0.0 1.6 0.00 2.74 2.74 86 1010.3
20260505224736 10 0.0 0.0 0.00 2.74 2.74 86 1010.4
20260505223716 10 0.0 0.0 0.00 2.74 2.74 85 1010.3
20260505222716 10 0.0 1.6 0.00 2.74 2.74 86 1010.5
20260505221716 10 0.0 0.0 0.00 2.74 2.74 86 1010.5
20260505220756 10 0.0 0.0 0.00 2.74 2.74 87 1010.4
20260505215716 10 0.0 0.0 0.00 2.74 2.74 88 1010.6
20260505214716 10 0.0 0.0 0.00 2.74 2.74 90 1010.2
20260505213716 9 0.0 1.6 0.00 2.74 2.74 90 1010.3
20260505212716 9 0.0 0.0 0.00 2.74 2.74 91 1010.3
20260505211716 8 0.0 0.0 0.03 2.74 2.74 90 1010.5
20260505210716 8 0.0 0.0 0.03 2.74 2.74 91 1010.4
20260505205716 8 0.0 1.6 0.05 2.74 2.74 91 1010.5
20260505204743 8 0.0 0.0 0.08 2.74 2.74 91 1010.5
20260505203816 8 180 1.6 3.2 0.10 2.74 2.74 91 1010.4
20260505202816 8 158 1.6 3.2 0.13 2.74 2.74 92 1010.5
20260505201836 7 248 1.6 4.8 0.13 2.72 2.72 92 1010.6
20260505200836 7 113 1.6 4.8 0.15 2.72 2.72 91 1010.0
20260505195816 7 90 4.8 6.4 0.15 2.69 2.69 91 1009.9
20260505194816 7 113 1.6 1.6 0.13 2.67 2.67 92 1010.5
20260505193816 7 0.0 1.6 0.15 2.64 2.64 92 1010.5
20260505192816 7 135 1.6 1.6 0.18 2.62 2.62 91 1010.5
20260505191816 7 113 3.2 6.4 0.18 2.59 2.59 91 1010.3
20260505190816 7 0.0 1.6 0.15 2.57 2.57 92 1010.7
20260505185816 7 45 1.6 3.2 0.13 2.54 2.54 92 1010.4
20260505184816 7 113 1.6 3.2 0.13 2.54 2.54 92 1010.8
20260505183816 7 135 1.6 1.6 0.13 2.49 2.49 92 1011.1
20260505182816 7 68 1.6 4.8 0.13 2.44 2.44 92 1010.7
20260505181816 7 0.0 1.6 0.15 2.41 2.41 92 1011.4
20260505180816 7 0.0 1.6 0.18 2.41 2.41 93 1011.4
20260505175816 7 23 3.2 4.8 0.25 2.41 2.41 92 1011.6
20260505174816 7 45 1.6 3.2 0.33 2.41 2.41 92 1011.5
20260505173816 7 68 4.8 8.0 0.33 2.36 2.36 91 1011.0
20260505172816 7 90 4.8 6.4 0.28 2.31 2.31 90 1011.5
20260505171816 7 113 6.4 9.7 0.23 2.26 2.26 90 1011.5
20260505170816 7 90 3.2 8.0 0.23 2.24 2.24 90 1011.6
20260505165837 7 0.0 1.6 0.18 2.16 2.16 90 1011.6
20260505164817 7 45 3.2 4.8 0.13 2.08 2.08 91 1011.2
20260505163817 8 23 3.2 4.8 0.08 2.03 2.03 92 1012.0
20260505162816 8 23 4.8 4.8 0.13 2.03 2.03 92 1011.7
20260505161817 8 0 1.6 3.2 0.13 2.03 2.03 92 1011.7
20260505160816 8 23 3.2 3.2 0.10 2.01 2.01 90 1011.5
20260505153016 8 45 1.6 3.2 0.13 1.91 1.91 90 1010.7
20260505152016 8 23 3.2 4.8 0.15 1.91 1.91 90 1010.9
20260505151016 9 45 3.2 4.8 0.20 1.91 1.91 91 1011.1
20260505140417 8 0 3.2 4.8 0.08 1.70 1.70 89 1010.7
20260505124437 9 68 9.7 12.9 0.03 1.63 1.63 85 1008.6
20260505123417 9 45 3.2 8.0 0.00 1.60 1.60 87 1009.0
20260505122417 8 23 1.6 3.2 0.00 1.60 1.60 88 1009.0
20260505121417 8 0.0 0.0 0.00 1.60 1.60 90 1008.8
20260505120417 8 113 1.6 3.2 0.03 1.60 1.60 89 1008.4
20260505115540 8 23 3.2 3.2 0.05 1.60 1.60 90 1008.7
20260505114817 8 0.0 1.6 0.05 1.60 1.60 90 1008.8
20260505113817 8 0.0 1.6 0.05 1.60 1.60 90 1008.6
20260505112817 8 90 1.6 3.2 0.05 1.60 1.60 90 1008.2
20260505111817 8 90 8.0 11.3 0.05 1.60 1.60 89 1008.1
20260505110817 8 90 4.8 9.7 0.03 1.57 1.57 89 1008.3
20260505101817 8 23 4.8 8.0 0.00 1.55 1.55 95 1008.1
20260505100817 8 23 6.4 8.0 0.00 1.55 1.55 95 1007.9
20260505095817 8 23 4.8 8.0 0.00 1.55 1.55 95 1008.0
20260505094857 8 23 8.0 11.3 0.00 1.55 1.55 95 1007.4
20260505093817 8 23 6.4 9.7 0.00 1.55 1.55 95 1007.1
20260505092817 8 45 6.4 11.3 0.10 1.55 1.55 95 1007.3
20260505091817 8 23 6.4 8.0 0.25 1.55 1.55 95 1007.5
20260505090817 8 0 4.8 6.4 0.38 1.55 1.55 95 1006.9
20260505085817 8 0 8.0 14.5 0.48 1.55 1.55 95 1005.1
20260505084817 8 45 9.7 29.0 0.61 1.55 1.55 95 1004.2
20260505083817 8 68 11.3 12.9 0.66 1.55 1.55 95 1004.9
20260505082817 8 45 8.0 9.7 0.61 1.45 1.45 95 1007.3
20260505081817 9 23 3.2 6.4 0.51 1.30 1.30 95 1007.7
20260505080817 9 23 3.2 3.2 0.43 1.17 1.17 95 1008.8
20260505075817 9 0.0 0.0 0.64 1.07 1.07 95 1009.3
20260505074914 10 0.0 0.0 0.61 0.94 0.94 94 1008.7
20260505074815 10 0.0 0.0 0.61 0.94 0.94 94 1008.6
20260505073717 10 0 4.8 4.8 0.84 0.89 0.89 93 1007.0
20260505072737 10 23 1.6 3.2 0.79 0.84 0.84 93 1006.6
20260505071715 10 0 4.8 4.8 0.76 0.79 0.79 91 1006.6
20260505070715 11 0 6.4 8.0 0.69 0.71 0.71 88 1006.3